This demonstration page uses our WeatherBlox Daily Observations layout. Learn more.

38.88101, -77.10428

Hourly Observations for August 20, 2016

Temp ( °F °C ) Dew Point ( °F °C ) Humidity (%) Winds ( mph kmh ) Pressure ( in mb ) Visibility ( mi km ) Precip ( " mm )
12:52 am 00:52 Partly Cloudy 78 25.6 71 21.7 79 79 S 5 7 29.94 1014 10 16.09344 0 0
1:52 am 01:52 Mostly Clear 79 26.1 70 21.1 74 74 Calm 29.94 1014 10 16.09344 0 0
2:52 am 02:52 Clear 78 25.6 70 21.1 76 76 Calm 29.94 1014 10 16.09344 0 0
3:52 am 03:52 Clear 77 25 70 21.1 79 79 Calm 29.91 1013 10 16.09344 0 0
4:52 am 04:52 Mostly Clear 76 24.4 71 21.7 85 85 N 5 7 29.91 1013 10 16.09344 0 0
5:52 am 05:52 Mostly Clear 75 23.9 71 21.7 88 88 NE 6 9 29.91 1013 10 16.09344 0 0
6:52 am 06:52 Mostly Sunny 75 23.9 71 21.7 88 88 ENE 6 9 29.91 1013 8 12.874752 0 0
7:52 am 07:52 Mostly Sunny 77 25 70 21.1 79 79 NNE 3 6 29.94 1014 8 12.874752 0 0
8:52 am 08:52 Mostly Sunny 80 26.7 70 21.1 71 71 ENE 3 6 29.91 1013 9 14.484096 0 0
9:52 am 09:52 Mostly Sunny 84 28.9 71 21.7 65 65 Calm 29.91 1013 10 16.09344 0 0
10:52 am 10:52 Mostly Sunny 87 30.6 65 18.3 48 48 E 6 9 29.91 1013 10 16.09344 0 0
11:52 am 11:52 Mostly Sunny 88 31.1 65 18.3 46 46 S 8 13 29.91 1013 10 16.09344 0 0
12:52 pm 12:52 Mostly Cloudy 89 31.7 67 19.4 48 48 N 5 7 29.91 1013 10 16.09344 0 0
1:52 pm 13:52 Mostly Cloudy 89 31.7 68 20 50 50 S 6 9 29.88 1012 10 16.09344 0 0
2:52 pm 14:52 Mostly Cloudy 91 32.8 67 19.4 45 45 SSE 12 19 29.88 1012 10 16.09344 0 0
3:52 pm 15:52 Partly Cloudy 91 32.8 65 18.3 42 42 S 9 15 29.85 1011 10 16.09344 0 0
4:52 pm 16:52 Mostly Sunny 90 32.2 65 18.3 44 44 SSE 10 17 29.85 1011 10 16.09344 0 0
5:52 pm 17:52 Mostly Sunny 89 31.7 58 14.4 35 35 SSE 9 15 29.85 1011 10 16.09344 0 0
6:52 pm 18:52 Partly Cloudy 87 30.6 60 15.6 40 40 SE 8 13 29.83 1010 10 16.09344 0 0
7:52 pm 19:52 Partly Cloudy 85 29.4 62 16.7 46 46 SE 9 15 29.85 1011 10 16.09344 0 0
8:52 pm 20:52 Mostly Clear 83 28.3 64 17.8 53 53 SE 9 15 29.85 1011 10 16.09344 0 0
9:52 pm 21:52 Clear 81 27.2 65 18.3 58 58 S 8 13 29.88 1012 10 16.09344 0 0
10:52 pm 22:52 Clear 80 26.7 66 18.9 62 62 S 9 15 29.88 1012 10 16.09344 0 0
11:52 pm 23:52 Clear 80 26.7 68 20 67 67 S 12 19 29.88 1012 10 16.09344 0 0

Powered by AerisWeather